GFSCGP_con_mucape_264.txt.gz
CAPE
0 0 0 1 93 0 0 0 0 64 0 8 4 0 0 151 163 243 190 41 13 8 1 8 22 0 63 17 18 194 572 762 732 665 724 816 980 1028 917 752 830 1306 1063 1071
0 0 0 0 0 0 1 0 0 18 24 59 0 0 3 84 249 276 248 146 96 13 0 4 65 57 52 215 247 286 600 1127 1239 884 961 848 915 908 987 933 1112 1380 1182 1102
0 0 0 0 0 0 1 0 0 0 0 0 0 1 70 447 457 357 306 291 259 146 0 0 65 137 83 149 429 475 880 1115 1375 907 925 1005 869 1098 1125 1120 1215 1347 1230 1147
0 0 0 0 0 0 0 0 0 0 0 0 0 0 0 188 567 560 495 377 332 316 155 63 52 150 169 165 237 576 812 1174 1393 1308 1150 1154 952 920 827 991 927 942 1182 1060
0 0 0 0 0 0 0 0 0 0 0 0 0 0 2 0 12 116 224 331 301 289 260 144 120 60 157 118 217 492 970 1179 1213 1477 1343 1263 1439 1010 825 809 1102 1524 1486 1243
0 0 0 0 0 0 0 0 0 0 0 0 0 0 2 17 0 20 7 75 169 209 245 237 159 105 111 148 169 345 1379 1832 1435 1397 1634 1548 1870 1679 1091 1310 991 1139 855 1073
0 0 0 0 0 0 0 0 0 0 0 0 0 0 0 4 0 0 0 0 0 5 68 116 276 206 181 225 202 297 1296 1599 1483 1337 1514 1552 1787 1915 1889 1620 1122 1509 560 533
0 0 0 0 0 0 0 0 0 0 0 0 0 0 0 0 0 0 0 0 0 0 18 89 55 246 251 276 363 367 674 1766 1523 1339 1705 2273 2493 1704 1699 2017 1116 806 576 534
0 0 0 0 0 0 0 0 0 0 0 0 0 0 0 0 0 0 0 0 0 0 0 48 354 260 214 314 483 495 758 1238 1615 1325 1734 2691 2774 2525 1692 2565 2372 1244 2010 553
0 0 0 0 0 0 0 0 0 0 0 0 0 0 0 0 0 0 0 0 0 0 0 0 99 972 802 205 410 565 656 1001 1378 1222 1599 1912 2049 2364 2444 2062 2329 2318 1759 2081
0 0 0 0 0 0 0 0 0 0 0 0 0 0 0 0 0 0 0 0 0 0 0 0 28 449 1321 319 289 599 726 864 1276 1945 1843 2295 1976 2097 1968 1565 2033 2280 2018 2474
0 0 0 0 0 0 0 0 0 0 0 0 0 0 0 0 0 0 0 0 0 0 0 0 24 353 1167 458 323 516 759 996 1724 2241 2659 2110 1681 1767 1540 1786 1806 1951 2207 2258
0 0 0 0 0 0 0 0 0 0 0 0 0 0 0 0 0 0 0 0 0 0 0 2 80 520 1494 666 477 532 750 906 1022 2065 1678 1520 1429 1377 1284 1273 1703 1984 2176 1998
0 0 0 0 0 0 0 0 0 0 0 0 0 0 0 0 0 0 0 0 0 0 0 13 245 392 1298 1273 656 699 764 918 1015 1317 1501 1839 1390 1362 1229 1855 2183 2235 2795 2358
0 0 0 0 0 0 0 0 0 0 0 0 0 0 0 0 0 0 0 0 0 0 0 22 226 468 630 1421 742 739 944 988 1066 1780 1462 2058 2078 2241 2146 2345 2525 2720 2924 2498
0 0 0 0 0 0 0 0 0 0 0 0 0 0 0 0 0 0 2 1 0 0 0 60 158 453 421 806 1321 729 990 1087 1300 1395 1555 2313 2528 2637 2913 3083 3225 3647 3435 3659
0 0 0 0 0 0 0 0 0 0 0 0 0 0 0 0 0 0 10 14 0 0 27 104 232 410 521 789 1033 1171 911 913 1122 1314 1715 1970 2508 1965 2155 2392 2616 3154 3525 3754
0 0 0 0 0 0 0 0 0 0 0 0 0 0 3 15 26 16 33 11 32 19 6 7 66 499 592 427 934 1441 1162 910 782 1098 1568 1675 1675 1817 1781 1606 2186 3043 2694 3155
0 0 0 0 0 0 0 0 0 9 0 0 1 0 2 10 3 0 8 111 28 0 0 2 1 252 565 368 588 873 1601 1322 1235 1641 1764 1498 1379 1822 1419 1342 1711 1871 2821 3151
0 0 0 0 0 0 3 0 0 1 0 46 1 1 6 9 1 4 45 39 38 5 0 0 0 0 20 489 571 600 1566 1733 1719 1903 1847 2056 2261 1577 1350 1432 2206 2558 2185 2881
0 2 3 9 16 22 35 1 0 45 88 51 15 5 3 4 12 4 3 44 121 40 9 7 3 0 26 276 606 589 1874 2294 1678 1847 2159 1967 1871 2067 2362 2201 1460 1571 2269 2401
0 3 17 23 61 105 46 46 92 132 88 55 25 19 21 43 7 21 63 162 202 94 20 20 84 2 3 64 286 462 1067 881 801 1321 1454 1207 1012 928 780 693 630 505 535 911
1 2 51 74 156 178 98 205 202 102 122 99 90 102 122 108 182 148 168 274 255 101 27 23 1 33 0 58 227 631 821 957 533 474 616 532 611 696 637 516 387 381 328 246
16 35 44 29 95 123 213 225 236 306 311 121 295 307 223 414 384 492 414 416 203 44 31 0 5 0 0 125 202 364 536 665 808 917 903 750 561 368 374 367 191 93 140 41
5 118 128 159 227 222 171 256 410 32 93 243 175 156 396 506 587 532 309 204 130 4 0 0 0 0 0 95 283 323 472 550 560 507 493 302 259 19 12 0 6 88 55 80
46 125 215 135 151 305 245 332 56 56 63 200 248 321 308 222 150 42 30 25 12 0 0 0 0 1 1 0 190 74 97 100 92 30 18 34 18 238 41 6 11 25 40 80

GFSCGP_con_mucape_267.txt.gz
CAPE
0 0 2 11 0 10 6 1 29 4 40 39 75 30 87 373 459 642 642 331 62 0 0 0 0 0 0 0 0 237 437 1382 813 506 466 421 405 529 507 445 540 1293 1000 1120
0 0 5 0 0 0 0 4 3 0 66 52 14 0 12 374 381 565 656 514 335 47 5 0 0 4 10 0 15 374 716 1030 722 648 1008 945 1236 676 576 545 971 977 1134 985
0 0 0 0 0 0 0 0 0 0 0 88 28 21 15 298 476 461 598 593 507 422 73 40 87 78 32 105 133 349 821 1325 1559 1760 1054 1214 2005 2057 1020 945 833 1181 1237 1000
0 0 0 0 0 0 0 0 0 0 0 5 0 17 93 473 474 510 456 605 615 611 385 168 116 177 76 101 338 516 1094 1788 1649 2008 1902 2794 1108 1009 1200 1051 825 1088 1274 1102
0 0 0 0 0 0 0 0 0 0 0 0 0 0 1 9 71 500 433 482 511 694 658 456 225 247 207 141 175 553 1889 2103 2678 2483 2668 1659 2064 900 874 842 2501 2414 2624 1324
0 0 0 0 0 0 0 0 0 0 0 0 0 0 7 72 18 106 134 311 301 353 440 571 563 384 356 246 208 302 2342 2920 2922 2718 2041 2928 3044 2493 991 1097 1071 1131 1112 1298
0 0 0 0 0 0 0 0 0 0 0 0 0 0 0 75 13 0 0 0 6 6 108 328 493 588 515 413 298 271 2117 3145 2440 2173 2388 2338 2718 3211 3382 2692 938 1249 826 862
0 0 0 0 0 0 0 0 0 0 0 0 0 0 0 0 0 0 0 0 0 0 0 74 298 401 553 552 502 368 1454 2919 2715 2233 2920 3102 3334 1832 1919 2530 1222 795 643 690
0 0 0 0 0 0 0 0 0 0 0 0 0 0 0 0 0 0 0 0 0 0 0 0 15 307 757 600 586 622 1136 2661 2820 2286 3083 3366 3500 3117 1959 2772 3051 1547 1590 670
0 0 0 0 0 0 0 0 0 0 0 0 0 0 0 0 0 0 0 0 0 0 0 0 0 0 12 880 1066 571 794 1747 1651 1748 2812 2999 3629 3691 3380 3412 3569 2505 2432 2292
0 0 0 0 0 0 0 0 0 0 0 0 0 8 9 1 0 0 0 0 0 0 0 0 0 0 2 346 1482 675 665 1067 1735 2543 2646 2983 3116 3375 3659 2839 3247 3569 3001 3461
0 0 0 0 0 0 0 0 0 0 0 0 0 0 0 0 0 0 0 0 0 0 0 0 0 4 51 262 1719 851 554 1245 1992 2511 3354 3225 2695 3073 2710 3305 2730 3169 3293 3123
0 0 0 0 0 0 0 0 0 0 0 0 0 0 0 0 0 0 0 0 0 0 0 0 0 15 190 334 1549 1974 833 768 1817 2911 2874 2266 2127 2169 2325 2315 2689 2765 3380 3514
0 0 0 0 7 0 0 0 0 0 0 0 0 0 0 0 0 0 0 0 0 0 0 0 0 20 147 435 766 1883 1674 862 1432 2150 1868 2352 2211 2088 1944 2584 3054 3067 3293 3625
0 0 0 0 0 0 0 0 0 0 0 0 0 0 0 0 0 0 0 0 2 0 0 0 0 9 42 336 508 937 1791 1287 1509 1789 2182 2708 3181 2961 2793 2805 2863 3136 3357 3291
0 0 0 0 0 0 0 0 0 0 0 0 0 0 0 0 0 0 0 0 0 6 0 2 11 2 3 166 545 456 984 1863 1755 2014 2165 2568 3536 3626 3556 3319 3424 3348 3636 3484
0 0 0 0 0 0 0 0 0 0 0 0 0 0 0 0 0 0 20 22 8 19 4 7 1 2 0 82 419 548 1070 1026 1616 1155 2059 2361 3324 3457 3060 3272 3472 3399 3828 4034
0 0 0 0 1 0 15 0 0 0 0 0 0 0 5 16 6 2 0 0 37 68 54 8 0 0 0 0 0 550 465 766 1424 1529 1314 1067 2301 2698 3099 3076 3268 3304 3535 3916
0 0 4 8 15 17 3 19 0 0 0 0 0 0 30 44 21 6 0 15 28 14 8 6 7 0 3 0 0 183 684 520 1111 1724 1046 454 783 1779 2490 2299 3066 3253 2955 2913
0 0 0 0 0 0 36 53 4 1 0 125 66 59 61 85 51 17 41 0 0 0 10 6 5 3 4 131 0 6 512 612 1212 1585 2126 1559 710 904 1493 1410 2705 2006 2231 1859
3 9 4 21 39 59 83 35 34 39 154 89 84 76 49 60 55 29 36 34 35 33 31 99 15 9 4 252 143 127 563 891 1402 1677 2452 2607 2728 2507 2318 1937 2072 2092 1931 2712
0 5 20 35 76 112 86 85 111 166 145 147 197 198 177 144 123 89 90 74 69 86 94 147 60 6 7 14 44 281 717 778 953 1732 1980 2072 2521 2467 1885 1276 1865 1760 1915 1907
0 0 45 40 120 68 69 93 148 369 418 406 361 187 307 260 237 163 144 126 250 268 174 60 28 14 14 22 29 1 82 303 477 1149 1258 1215 1172 1091 1404 1860 1986 1307 1292 1171
5 12 100 62 76 80 130 115 210 523 443 367 300 237 289 228 362 408 639 521 526 320 48 18 12 14 15 13 30 0 142 100 462 614 869 771 843 685 856 861 683 699 378 179
21 11 18 70 85 97 97 173 519 468 233 89 23 148 152 106 346 475 162 195 87 8 0 0 0 0 0 0 0 0 292 214 235 536 767 739 802 720 760 422 296 128 92 204
50 91 121 238 245 243 160 157 590 268 14 18 8 0 2 1 9 1 6 50 6 6 6 7 0 0 2 7 0 0 15 218 230 704 547 642 653 674 185 107 59 10 3 66

GFSCGP_con_mucape_270.txt.gz
CAPE
0 0 3 21 10 2 0 10 10 0 0 8 2 11 315 548 563 522 260 87 7 5 3 0 0 0 0 53 609 1006 1169 2150 1210 1439 1005 1239 1027 851 814 1157 1582 2302 2163 1950
0 0 0 0 0 0 74 1 21 0 0 1 12 0 60 389 481 450 518 307 83 16 16 21 0 0 0 15 566 1002 1344 2068 1560 1422 1000 1101 749 827 895 1322 1998 2075 2102 2248
0 0 0 0 0 0 0 2 0 1 0 0 2 0 0 510 408 516 483 577 372 60 23 103 57 129 58 14 358 974 1542 1815 1462 1399 1397 2032 2030 2286 1954 1951 1541 1723 2134 2405
0 0 0 0 0 0 0 0 0 0 0 0 1 13 51 268 478 362 480 518 476 439 126 219 209 243 302 142 197 1087 1682 2091 1485 1768 1440 1871 1259 1233 1376 2451 1439 1614 1995 2091
0 0 0 0 0 0 0 0 0 0 0 0 0 0 0 273 527 538 393 450 516 521 374 138 100 425 258 280 443 820 1636 2281 2165 1791 2076 2187 1875 1548 1836 1408 2028 1866 1982 2190
0 0 0 0 0 0 0 0 0 0 0 0 0 0 0 132 271 507 477 334 241 110 381 588 446 567 498 345 495 918 1719 2015 2411 2391 2007 2579 1810 2137 1605 1784 2028 1434 1984 1784
0 0 0 0 0 0 0 0 0 0 0 0 0 0 77 128 132 119 244 331 242 63 151 232 394 679 690 636 503 872 1970 2153 2297 2819 2422 2333 2872 2203 2582 3569 1853 1674 1409 1686
0 0 0 0 0 0 0 0 0 0 0 0 0 4 135 14 18 0 1 1 0 1 31 112 127 216 463 896 866 781 1965 2273 2508 2231 2851 2615 2712 2807 2575 2861 2045 1638 1436 1306
0 0 0 0 0 0 0 0 0 0 0 0 0 87 66 29 1 0 0 0 0 0 0 45 157 108 255 270 396 1069 1510 2289 2437 2433 2425 2776 2650 2741 2308 2517 3334 2429 2048 1648
0 0 0 0 0 0 0 0 0 0 0 0 0 0 92 119 19 0 0 0 0 0 0 0 0 87 205 233 339 739 1123 2267 2546 2487 2438 2533 2878 2837 2602 2781 2226 2546 2851 2187
0 0 0 0 0 0 0 0 0 0 0 0 0 78 168 216 2 0 0 0 0 0 0 0 0 0 2 37 78 807 1706 1946 2485 2492 2570 2708 2702 3036 3003 2578 2894 2765 2424 3424
0 0 0 0 0 0 0 0 0 0 0 0 0 0 69 28 4 0 0 0 0 0 0 0 0 0 0 105 261 522 1433 2004 2342 2415 2387 2792 2826 2891 3070 2979 2490 3135 2969 3034
0 0 0 0 0 0 0 0 0 0 0 0 0 0 44 0 0 0 0 0 0 0 0 0 0 4 90 170 574 677 1000 1653 1754 2564 2359 2484 2710 2820 2904 2925 3003 2406 2795 2895
0 0 0 0 0 0 0 0 0 0 0 0 0 0 27 9 0 0 0 0 0 0 0 0 0 245 49 39 285 702 752 801 1343 1451 2407 2429 2594 2596 2743 2758 3105 2994 2542 2750
0 0 0 0 0 0 0 0 0 0 0 0 0 0 0 0 0 1 1 0 0 1 1 1 0 79 7 3 105 344 506 834 961 1366 1538 2030 2630 2637 2694 2744 2709 2820 2630 2512
0 0 0 0 0 0 0 0 0 0 0 0 0 0 0 0 0 0 0 0 0 0 0 0 61 7 0 0 0 0 0 523 823 900 1645 1648 1831 2527 2769 2921 2613 2635 2764 2659
0 0 0 0 0 0 0 0 0 0 0 0 0 0 0 0 0 0 0 0 0 0 31 260 104 27 30 0 0 0 0 0 842 765 1188 1986 2084 1996 2763 2823 2984 3181 2511 2792
0 0 0 0 0 0 0 0 0 0 0 0 0 0 0 0 0 0 0 0 0 1 0 0 21 30 103 23 0 10 6 0 117 869 911 1772 2223 1813 1940 1781 2210 2417 2584 2650
0 0 0 0 1 2 10 0 0 0 0 0 0 0 0 0 1 2 0 34 17 46 37 5 3 14 109 106 222 5 100 132 81 560 927 1658 2166 1959 1817 1740 1887 1772 2422 2394
0 0 0 0 0 0 78 0 0 0 0 28 0 0 0 1 10 2 87 32 25 17 25 65 33 17 141 389 137 0 14 378 276 389 1194 1490 1631 1780 1888 2217 2201 2135 1949 1582
20 4 0 5 12 48 54 5 0 22 71 116 115 74 15 29 239 120 111 149 129 133 79 148 84 133 265 264 34 19 50 125 371 590 1266 1412 1864 1885 1799 1749 1472 1446 1267 1199
0 1 1 7 27 81 7 5 4 119 196 127 134 138 137 133 213 229 236 166 208 336 231 245 185 197 168 54 5 19 25 26 11 3 701 812 1600 1831 1943 1860 1613 1716 1510 1140
0 0 0 0 58 116 16 15 60 181 322 165 85 91 92 27 8 37 312 309 333 327 396 209 127 10 0 0 0 11 21 37 16 1 361 1126 1166 1268 1905 1971 1959 1792 1794 943
9 4 1 38 40 98 198 125 113 442 252 128 69 24 0 0 0 0 0 8 14 120 233 163 6 0 0 0 0 0 0 15 3 64 228 953 924 1208 1178 1270 1287 1350 1270 915
1 18 13 3 118 122 83 81 650 420 241 77 10 0 0 0 0 0 0 0 6 6 9 0 0 0 0 0 0 0 0 0 0 215 229 715 548 851 805 805 758 904 776 630
65 77 121 267 207 423 293 208 762 452 179 6 0 0 0 0 0 0 0 0 0 5 45 7 7 5 7 3 5 0 0 2 18 308 235 316 434 567 690 910 851 722 603 483

GFSCGP_con_mucape_273.txt.gz
CAPE
0 0 0 9 10 35 21 0 15 223 0 0 206 502 491 198 153 184 157 19 0 0 0 0 0 0 11 164 32 117 38 183 204 229 681 485 486 213 236 407 685 912 994 1020
0 0 0 1 4 0 15 1 0 0 0 0 3 3 532 450 380 292 276 230 44 0 0 0 0 0 4 30 170 116 525 332 408 56 156 517 432 187 115 413 759 901 1145 812
0 0 0 0 0 0 0 3 0 0 0 0 0 0 92 508 445 372 331 342 285 8 0 0 0 0 0 62 40 362 546 297 428 206 87 256 476 630 544 826 1013 890 1078 885
0 0 0 0 0 0 0 0 0 0 0 0 0 0 0 402 420 362 359 298 329 232 36 29 20 1 0 162 172 303 601 522 503 385 232 266 405 370 475 828 868 1092 645 1027
0 0 0 0 0 0 0 0 0 0 0 0 0 0 0 373 414 305 318 473 316 224 342 42 53 67 93 80 276 381 680 827 395 493 801 363 592 347 409 635 736 628 1043 772
0 0 0 0 0 0 0 0 0 0 0 0 0 0 0 339 457 419 462 404 454 461 383 210 201 361 177 137 251 565 778 1019 577 329 525 887 797 713 613 829 524 880 600 1071
0 0 0 0 0 0 0 0 0 0 0 0 0 0 245 463 436 461 431 286 318 642 181 20 89 719 739 365 159 806 784 1196 1022 980 589 648 939 898 999 1162 674 1280 796 784
0 0 0 0 0 0 0 0 0 0 0 0 0 39 438 532 451 404 307 229 390 359 11 234 326 439 565 639 435 645 952 829 1393 1487 1103 597 1009 1359 1352 698 1483 1596 1134 813
0 0 0 0 0 0 0 0 0 0 0 0 19 135 129 132 112 85 54 1 0 7 74 7 403 424 523 591 323 478 498 1134 1139 1139 1566 1234 1076 1068 1647 1952 1379 1740 1223 1017
0 0 0 0 0 0 0 0 0 0 0 0 7 75 168 161 145 82 39 12 11 27 24 88 104 37 6 12 121 289 333 1555 1351 1520 1289 1717 1465 1067 1237 1778 1857 1515 1989 1261
0 0 0 0 0 0 0 0 0 0 0 0 0 140 167 113 70 44 5 0 0 0 0 0 0 6 45 29 86 160 219 617 1023 1280 1595 1541 1770 1587 1110 1205 1545 1775 1413 1676
0 0 0 0 0 0 0 0 0 0 0 0 0 31 51 51 47 3 0 0 0 0 0 0 0 0 0 0 0 0 95 144 615 1488 1837 1557 1649 1917 1798 1534 1213 1386 1780 1680
0 0 0 0 0 0 0 0 0 0 0 0 0 0 2 0 0 0 0 0 0 0 0 0 0 0 0 0 0 0 0 0 273 925 1814 1977 1800 1840 2107 2017 1731 1356 1769 1875
0 0 0 0 0 0 0 0 0 0 0 0 0 0 20 4 0 0 0 0 0 0 0 0 1 0 0 0 0 0 0 0 0 279 776 1837 2155 1989 2017 2097 2150 1876 1376 1672
0 0 0 0 0 0 0 0 0 0 0 0 0 0 0 0 0 0 0 0 0 0 0 0 0 0 0 0 0 0 0 0 0 0 470 877 1613 1816 1741 1984 2006 2165 2046 1469
0 0 0 0 0 0 0 0 0 0 0 0 0 0 0 0 0 0 0 0 0 0 0 0 0 0 0 0 0 0 0 0 0 0 0 412 889 1283 1511 1711 1988 1903 2175 1909
0 0 0 0 0 0 0 0 0 0 0 0 0 0 0 0 0 0 0 0 0 0 0 0 0 0 0 0 0 0 0 0 0 0 0 0 288 873 1247 1396 1840 1786 1744 1776
0 0 0 0 0 0 0 0 0 0 0 0 0 0 0 0 0 0 0 0 0 0 0 0 0 0 0 0 2 0 0 0 0 0 0 0 0 280 912 1186 1329 1601 1497 843
0 0 0 0 0 0 0 0 0 0 0 0 0 0 0 0 0 0 0 0 0 0 0 0 0 0 0 0 0 0 0 0 0 0 0 0 29 234 713 882 920 1106 1334 1187
0 0 0 0 0 0 0 0 0 0 0 0 0 0 0 0 0 0 0 0 0 0 0 0 0 0 2 3 56 9 0 0 0 0 0 0 0 0 400 697 941 1057 1126 1085
0 0 0 0 0 20 1 0 0 0 0 0 0 0 0 0 0 0 0 0 0 0 0 0 0 1 20 4 5 3 0 0 0 0 0 0 0 3 84 415 900 1195 1056 1127
0 0 0 0 0 21 0 0 0 0 0 0 1 0 0 0 0 0 0 0 0 0 0 0 0 0 2 1 16 0 1 0 0 0 0 0 0 5 57 443 876 1224 1111 860
0 0 0 0 0 14 10 111 54 28 30 22 0 0 0 0 0 0 0 0 0 0 0 2 0 4 45 4 0 0 0 0 0 0 0 0 0 0 159 701 1031 1112 1075 907
11 10 0 1 12 0 1 21 94 60 59 0 0 0 0 0 0 0 0 0 0 0 0 0 4 1 0 0 0 0 0 0 0 0 0 0 0 133 789 894 1298 1271 1104 1078
0 8 25 19 0 0 14 6 373 225 156 0 0 0 0 0 0 0 0 0 0 0 0 0 0 0 0 0 0 0 0 0 2 0 0 0 121 277 491 790 933 980 934 947
13 132 85 73 20 14 136 103 242 315 24 4 0 0 0 0 0 0 0 0 0 0 0 0 0 0 0 4 7 7 6 4 5 61 6 47 289 361 352 556 671 911 964 867